CW4114 Weather Reports


time (UTC)temp
F
wind
direction
speed
knots
gust
knots
rain 1hr
in
rain 24hr
in
rain mn
in
humidity
%
barometer
mb
20260903180311 69 32 2.6 4.3 0.00 0.00 0.00 81 1013.8
20260903180040 69 40 0.0 3.5 0.00 0.00 0.00 81 1013.8
20260903175312 68 30 1.7 5.2 0.00 0.00 0.00 80 1013.8
20260903174812 69 337 1.7 5.2 0.00 0.00 0.00 82 1013.6
20260903174313 69 28 1.7 5.2 0.00 0.00 0.00 84 1013.5
20260903173812 69 32 1.7 5.2 0.00 0.00 0.00 82 1013.3
20260903173311 69 355 1.7 5.2 0.00 0.00 0.00 83 1013.2
20260903173038 69 18 2.6 5.2 0.00 0.00 0.00 82 1013.3
20260903172535 70 37 3.5 5.2 0.00 0.00 0.00 80 1013.3
20260903171809 71 42 1.7 3.5 0.00 0.00 0.00 80 1013.6
20260903171309 69 63 0.9 3.5 0.00 0.00 0.00 82 1013.7
20260903170808 68 30 0.0 3.5 0.00 0.00 0.00 82 1013.6
20260903170308 68 32 0.0 5.2 0.00 0.00 0.00 84 1013.4
20260903165805 68 30 2.6 5.2 0.00 0.00 0.00 84 1013.4
20260903165306 68 327 1.7 5.2 0.00 0.00 0.00 84 1013.4
20260903164805 69 54 1.7 5.2 0.00 0.00 0.00 83 1013.5
20260903164307 69 25 0.9 5.2 0.00 0.00 0.00 84 1013.3
20260903163802 68 34 2.6 7.8 0.00 0.00 0.00 84 1013.3
20260903163302 69 21 3.5 7.8 0.00 0.00 0.00 84 1013.3
20260903163033 68 4 1.7 6.1 0.00 0.00 0.00 84 1013.3
20260903162258 69 30 1.7 6.1 0.00 0.00 0.00 85 1013.3
20260903162030 68 21 1.7 6.1 0.00 0.00 0.00 84 1013.3
20260903161259 69 24 4.3 6.1 0.00 0.00 0.00 84 1013.2
20260903161033 68 121 0.0 7.8 0.00 0.00 0.00 85 1013.4
20260903160256 68 56 3.5 7.8 0.00 0.00 0.00 85 1013.4
20260903160027 69 41 1.7 7.8 0.00 0.00 0.00 82 1013.4
20260903155253 69 78 0.0 4.3 0.00 0.00 0.00 83 1013.5
20260903155021 69 114 0.0 4.3 0.00 0.00 0.00 83 1013.6
20260903154524 68 24 1.7 3.5 0.00 0.00 0.00 83 1013.5
20260903153755 69 286 0.0 6.1 0.00 0.00 0.00 83 1013.5
20260903153254 69 25 2.6 6.1 0.00 0.00 0.00 82 1013.5
20260903152754 69 31 1.7 6.1 0.00 0.00 0.00 82 1013.5
20260903152255 69 32 2.6 6.1 0.00 0.00 0.00 81 1013.5
20260903151752 68 358 0.0 5.2 0.00 0.00 0.00 84 1013.6
20260903151252 69 9 1.7 5.2 0.00 0.00 0.00 82 1013.4
20260903150751 69 27 2.6 5.2 0.00 0.00 0.00 81 1013.4
20260903150250 69 52 1.7 5.2 0.00 0.00 0.00 80 1013.4
20260903145750 70 37 1.7 5.2 0.00 0.00 0.00 78 1013.4
20260903145252 71 47 3.5 5.2 0.00 0.00 0.00 76 1013.5
20260903144821 71 126 0.9 3.5 0.00 0.00 0.00 76 1013.4
20260903144330 69 8 0.0 3.5 0.00 0.00 0.00 80 1013.4
20260903143750 69 52 0.9 4.3 0.00 0.00 0.00 80 1013.3
20260903143312 68 121 0.0 5.2 0.00 0.00 0.00 81 1013.3
20260903142849 69 12 1.7 5.2 0.00 0.00 0.00 77 1013.4
20260903142330 70 25 1.7 4.3 0.00 0.00 0.00 76 1013.5
20260903141759 70 9 1.7 3.5 0.00 0.00 0.00 74 1013.4
20260903141246 70 326 0.9 2.6 0.00 0.00 0.00 77 1013.4
20260903141013 69 344 0.0 2.6 0.00 0.00 0.00 76 1013.6
20260903140242 69 343 0.0 2.6 0.00 0.00 0.00 77 1013.5
20260903140212 69 296 0.0 2.6 0.00 0.00 0.00 78 1013.5
20260903135247 69 305 0.0 4.3 0.00 0.00 0.00 79 1013.4
20260903134744 68 42 0.9 4.3 0.00 0.00 0.00 80 1013.3
20260903134300 68 331 0.9 2.6 0.00 0.00 0.00 81 1013.3
20260903133739 68 217 0.0 2.6 0.00 0.00 0.00 80 1013.2
20260903133240 68 41 0.0 2.6 0.00 0.00 0.00 80 1013.4
20260903132739 68 15 0.0 2.6 0.00 0.00 0.00 78 1013.4
20260903132240 68 355 0.9 2.6 0.00 0.00 0.00 78 1013.4
20260903131739 68 324 0.0 2.6 0.00 0.00 0.00 78 1013.3
20260903131507 68 331 0.0 2.6 0.00 0.00 0.00 81 1013.4
20260903130738 67 317 0.0 2.6 0.00 0.00 0.00 82 1013.4
20260903130507 67 298 0.0 2.6 0.00 0.00 0.00 83 1013.2
20260903125733 68 316 0.9 1.7 0.00 0.00 0.00 85 1013.3
20260903125226 67 303 0.9 1.7 0.00 0.00 0.00 87 1013.3
20260903124727 67 327 0.0 1.7 0.00 0.00 0.00 89 1013.2
20260903124227 66 309 0.0 1.7 0.00 0.00 0.00 90 1013.3
20260903123725 66 95 0.0 2.6 0.00 0.00 0.00 92 1013.3
20260903123223 65 343 0.9 3.5 0.00 0.00 0.00 94 1013.3
20260903122724 64 333 0.9 3.5 0.00 0.00 0.00 95 1013.5
20260903122223 63 283 1.7 5.2 0.00 0.00 0.00 95 1013.5
20260903121722 63 278 1.7 5.2 0.00 0.00 0.00 96 1013.5
20260903121450 62 272 2.6 4.3 0.00 0.00 0.00 96 1013.4
20260903120721 62 267 0.9 2.6 0.00 0.00 0.00 97 1013.2
20260903120223 61 268 0.9 3.5 0.00 0.00 0.00 97 1013.2
20260903115942 61 279 1.7 3.5 0.00 0.00 0.00 97 1013.2
20260903115212 60 269 2.6 3.5 0.00 0.00 0.00 97 1013.2
20260903114711 60 268 1.7 2.6 0.00 0.00 0.00 96 1013.1
20260903114210 60 255 0.9 1.7 0.00 0.00 0.00 97 1013.0
20260903113708 60 259 0.9 1.7 0.00 0.00 0.00 97 1012.9
20260903113208 60 265 0.0 1.7 0.00 0.00 0.00 96 1013.0
20260903112708 60 250 0.0 1.7 0.00 0.00 0.00 96 1013.0
20260903112207 60 247 0.0 1.7 0.00 0.00 0.00 96 1013.0
20260903111707 60 267 0.9 2.6 0.00 0.00 0.00 96 1012.9
20260903111208 60 278 0.9 2.6 0.00 0.00 0.00 96 1013.0
20260903110705 60 264 0.9 1.7 0.00 0.00 0.00 96 1013.0
20260903110212 60 271 0.9 2.6 0.00 0.00 0.00 96 1013.0
20260903105933 60 275 0.9 2.6 0.00 0.00 0.00 96 1012.9
20260903105203 60 290 0.0 2.6 0.00 0.00 0.00 96 1012.9
20260903104703 60 283 0.9 2.6 0.00 0.00 0.00 96 1012.8
20260903104204 60 261 1.7 2.6 0.00 0.00 0.00 96 1012.9
20260903103703 60 265 1.7 1.7 0.00 0.00 0.00 96 1012.9
20260903103203 60 275 0.9 2.6 0.00 0.00 0.00 96 1012.8
20260903102702 60 282 1.7 3.5 0.00 0.00 0.00 96 1012.9
20260903102202 60 275 1.7 4.3 0.00 0.00 0.00 96 1012.9
20260903101703 61 275 2.6 4.3 0.00 0.00 0.00 96 1012.9
20260903101202 60 285 1.7 4.3 0.00 0.00 0.00 95 1012.9
20260903100702 60 298 3.5 4.3 0.00 0.00 0.00 95 1013.0
20260903100203 60 276 1.7 3.5 0.00 0.00 0.00 95 1012.9
20260903095702 60 278 1.7 3.5 0.00 0.00 0.00 95 1012.8
20260903095201 60 275 1.7 3.5 0.00 0.00 0.00 95 1012.8
20260903094657 60 283 0.9 2.6 0.00 0.00 0.00 94 1012.8
20260903094423 60 274 1.7 2.6 0.00 0.00 0.00 94 1012.7
20260903093658 60 252 0.9 3.5 0.00 0.00 0.00 94 1012.7
20260903093159 60 268 1.7 3.5 0.00 0.00 0.00 94 1012.9
20260903092656 60 282 1.7 2.6 0.00 0.00 0.00 94 1012.9
20260903092157 60 265 1.7 2.6 0.00 0.00 0.00 94 1012.8
20260903091653 60 274 0.9 1.7 0.00 0.00 0.00 94 1012.8
20260903091427 60 300 0.9 1.7 0.00 0.00 0.00 93 1012.7
20260903090919 60 275 0.9 1.7 0.00 0.00 0.00 93 1012.6
20260903090156 60 269 0.9 1.7 0.00 0.00 0.00 93 1012.6
20260903085923 60 275 0.0 1.7 0.00 0.00 0.00 93 1012.7
20260903085425 60 272 0.9 1.7 0.00 0.00 0.00 93 1012.7
20260903084649 60 286 0.0 0.9 0.00 0.00 0.00 93 1012.7
20260903084420 60 288 0.0 0.0 0.00 0.00 0.00 93 1012.7
20260903083650 60 292 0.0 1.7 0.00 0.00 0.00 92 1012.6
20260903083148 61 272 0.0 1.7 0.00 0.00 0.00 92 1012.6
20260903082647 61 269 0.0 0.9 0.00 0.00 0.00 92 1012.5
20260903082148 61 268 0.0 1.7 0.00 0.00 0.00 92 1012.4
20260903081649 61 271 0.9 1.7 0.00 0.00 0.00 91 1012.6
20260903081151 61 271 0.9 1.7 0.00 0.00 0.00 91 1012.6
20260903080646 61 314 0.0 1.7 0.00 0.00 0.00 91 1012.7
20260903080153 62 264 0.0 1.7 0.00 0.00 0.00 90 1012.6
20260903075512 62 259 0.0 1.7 0.00 0.00 0.00 90 1012.6
20260903075014 62 257 0.0 1.7 0.00 0.00 0.00 90 1012.6
20260903074510 62 264 0.0 1.7 0.00 0.00 0.00 90 1012.6
20260903074010 62 264 0.0 2.6 0.00 0.00 0.00 90 1012.5
20260903073735 63 265 1.7 2.6 0.00 0.00 0.00 90 1012.5
20260903073232 63 302 0.0 2.6 0.00 0.00 0.00 90 1012.5
20260903072508 63 303 0.0 2.6 0.00 0.00 0.00 90 1012.4
20260903072008 63 290 0.0 1.7 0.00 0.00 0.00 90 1012.4
20260903071731 63 283 0.0 1.7 0.00 0.00 0.00 90 1012.4
20260903071234 63 320 0.0 2.6 0.00 0.00 0.00 90 1012.4
20260903070504 62 282 0.0 2.6 0.00 0.00 0.00 91 1012.4
20260903070005 62 282 1.7 3.5 0.00 0.00 0.00 91 1012.3
20260903065742 62 276 2.6 3.5 0.00 0.00 0.00 91 1012.4
20260903065233 62 275 1.7 2.6 0.00 0.00 0.00 91 1012.3
20260903064503 62 283 0.9 2.6 0.00 0.00 0.00 91 1012.3
20260903064006 62 278 0.9 2.6 0.00 0.00 0.00 90 1012.3
20260903063503 62 282 0.9 2.6 0.00 0.00 0.00 90 1012.3
20260903063006 62 276 1.7 3.5 0.00 0.00 0.00 90 1012.3
20260903062503 63 275 2.6 3.5 0.00 0.00 0.00 90 1012.2
20260903062002 63 271 2.6 4.3 0.00 0.00 0.00 90 1012.2
20260903061502 63 262 2.6 4.3 0.00 0.00 0.00 90 1012.1
20260903061003 63 278 1.7 3.5 0.00 0.00 0.00 90 1012.1
20260903060502 63 264 1.7 2.6 0.00 0.00 0.00 90 1012.1
20260903060001 63 295 1.7 2.6 0.00 0.00 0.00 90 1011.9
20260903055502 63 264 0.9 2.6 0.00 0.00 0.00 91 1011.9
20260903055239 63 275 1.7 2.6 0.00 0.00 0.00 91 1011.9
20260903054503 63 306 0.9 2.6 0.00 0.00 0.00 91 1011.9
20260903054003 63 312 0.9 3.5 0.00 0.00 0.00 92 1011.9
20260903053504 63 289 0.9 3.5 0.00 0.00 0.00 92 1011.9
20260903053006 63 298 1.7 3.5 0.00 0.00 0.00 93 1011.8
20260903052502 63 326 1.7 3.5 0.00 0.00 0.00 93 1011.8
20260903052002 63 290 1.7 3.5 0.00 0.00 0.00 93 1011.7
20260903051501 63 279 0.9 2.6 0.00 0.00 0.00 93 1011.7
20260903051003 63 290 0.9 1.7 0.00 0.00 0.00 93 1011.8
20260903050502 63 303 0.9 2.6 0.00 0.00 0.00 93 1011.7
20260903045959 63 281 0.9 3.5 0.00 0.00 0.00 93 1011.7
20260903045500 63 336 1.7 4.3 0.00 0.00 0.00 93 1011.6
20260903045000 63 278 2.6 4.3 0.00 0.00 0.00 93 1011.6
20260903044459 63 286 2.6 4.3 0.00 0.00 0.00 93 1011.5
20260903044000 63 281 2.6 3.5 0.00 0.00 0.00 93 1011.5
20260903043501 63 275 2.6 3.5 0.00 0.00 0.00 93 1011.5
20260903042956 64 275 1.7 2.6 0.00 0.00 0.00 93 1011.4
20260903042455 64 282 0.9 2.6 0.00 0.00 0.00 93 1011.4
20260903041954 64 282 0.9 1.7 0.00 0.00 0.00 93 1011.5
20260903041455 64 276 0.9 2.6 0.00 0.00 0.00 93 1011.4
20260903040952 64 275 0.0 2.6 0.00 0.00 0.00 92 1011.5
20260903040452 64 274 1.7 2.6 0.00 0.00 0.00 92 1011.6
20260903035951 64 267 1.7 2.6 0.00 0.00 0.00 92 1011.5
20260903035721 64 261 0.9 1.7 0.00 0.00 0.00 92 1011.5
20260903035221 64 271 0.9 1.7 0.00 0.00 0.00 92 1011.5
20260903034451 64 272 1.7 1.7 0.00 0.00 0.00 92 1011.6
20260903033952 64 257 0.9 1.7 0.00 0.00 0.00 91 1011.7
20260903033451 64 259 0.9 1.7 0.00 0.00 0.00 91 1011.7
20260903032950 65 275 0.0 1.7 0.00 0.00 0.00 91 1011.6
20260903032451 65 268 0.9 1.7 0.00 0.00 0.00 90 1011.7
20260903031951 65 268 0.9 1.7 0.00 0.00 0.00 90 1011.7
20260903031452 65 265 0.9 2.6 0.00 0.00 0.00 90 1011.6
20260903031218 65 269 0.9 2.6 0.00 0.00 0.00 90 1011.7
20260903030449 65 281 0.0 1.7 0.00 0.00 0.00 89 1011.7
20260903025947 66 278 0.0 1.7 0.00 0.00 0.00 89 1011.7
20260903025446 66 292 0.0 2.6 0.00 0.00 0.00 88 1011.7
20260903024946 66 272 0.9 3.5 0.00 0.00 0.00 88 1011.6
20260903024711 66 271 1.7 3.5 0.00 0.00 0.00 87 1011.6
20260903023945 67 278 1.7 3.5 0.00 0.00 0.00 86 1011.7
20260903023445 67 258 1.7 1.7 0.00 0.00 0.00 86 1011.6
20260903022945 67 251 0.9 1.7 0.00 0.00 0.00 85 1011.5
20260903022443 67 271 0.0 1.7 0.00 0.00 0.00 85 1011.6
20260903022216 67 286 0.9 2.6 0.00 0.00 0.00 85 1011.6
20260903021442 68 306 0.0 2.6 0.00 0.00 0.00 85 1011.5
20260903020939 68 302 0.9 2.6 0.00 0.00 0.00 85 1011.5
20260903020439 68 322 0.0 1.7 0.00 0.00 0.00 85 1011.4
20260903015936 68 323 0.0 3.5 0.00 0.00 0.00 86 1011.4
20260903015434 68 320 0.9 3.5 0.00 0.00 0.00 86 1011.3
20260903014935 68 329 0.0 2.6 0.00 0.00 0.00 87 1011.4
20260903014434 68 312 0.0 1.7 0.00 0.00 0.00 87 1011.3
20260903013934 68 314 0.0 1.7 0.00 0.00 0.00 87 1011.4
20260903013434 68 351 0.0 1.7 0.00 0.00 0.00 87 1011.4
20260903012936 68 293 0.0 0.0 0.00 0.00 0.00 87 1011.3
20260903012433 68 292 0.0 0.0 0.00 0.00 0.00 87 1011.3
20260903012158 69 292 0.0 0.0 0.00 0.00 0.00 87 1011.3
20260903011701 69 292 0.0 1.7 0.00 0.00 0.00 86 1011.3
20260903010932 69 25 0.0 1.7 0.00 0.00 0.00 86 1011.3
20260903010431 69 21 0.0 0.9 0.00 0.00 0.00 86 1011.2
20260903005931 69 302 0.0 0.9 0.00 0.00 0.00 86 1011.0
20260903005430 69 49 0.0 0.0 0.00 0.00 0.00 86 1010.9
20260903004429 69 59 0.0 3.5 0.00 0.00 0.00 86 1010.9
20260903003930 69 41 0.9 2.6 0.00 0.00 0.00 85 1010.9
20260903003655 69 319 0.0 2.6 0.00 0.00 0.00 85 1010.9
20260903002928 69 25 0.0 2.6 0.00 0.00 0.00 85 1010.8
20260903002427 70 17 0.9 1.7 0.00 0.00 0.00 84 1010.8
20260903001925 70 322 0.0 0.0 0.00 0.00 0.00 84 1010.8
20260903001425 70 322 0.0 0.9 0.00 0.00 0.00 84 1010.7
20260903001153 70 322 0.0 0.9 0.00 0.00 0.00 83 1010.8
20260903000426 70 21 0.0 1.7 0.00 0.00 0.00 83 1010.8
20260902235923 71 40 0.9 1.7 0.00 0.00 0.00 83 1010.7
20260902235418 71 326 0.0 0.0 0.00 0.00 0.00 82 1010.7
20260902234918 71 326 0.0 0.0 0.00 0.00 0.00 82 1010.6
20260902233918 71 340 0.0 0.9 0.00 0.00 0.00 81 1010.6
20260902233417 72 19 0.0 0.9 0.00 0.00 0.00 80 1010.5
20260902233147 72 21 0.0 0.9 0.00 0.00 0.00 80 1010.6
20260902232414 72 21 0.0 0.9 0.00 0.00 0.00 80 1010.6
20260902232146 72 21 0.0 1.7 0.00 0.00 0.00 79 1010.7
20260902231641 72 27 0.9 1.7 0.00 0.00 0.00 79 1010.7
20260902230914 72 310 0.0 1.7 0.00 0.00 0.00 79 1010.8
20260902230412 73 340 0.0 2.6 0.00 0.00 0.00 78 1010.7
20260902225912 73 7 0.9 2.6 0.00 0.00 0.00 78 1010.7
20260902225412 73 330 0.0 2.6 0.00 0.00 0.00 78 1010.8
20260902224912 73 327 0.0 2.6 0.00 0.00 0.00 79 1010.8
20260902224411 72 17 0.0 2.6 0.00 0.00 0.00 80 1010.9
20260902223913 72 322 0.0 4.3 0.00 0.00 0.00 81 1010.8
20260902223411 72 313 0.0 4.3 0.00 0.00 0.00 82 1010.8
20260902223139 71 300 1.7 4.3 0.00 0.00 0.00 83 1010.9
20260902222410 71 345 0.0 4.3 0.00 0.00 0.00 84 1010.9
20260902221909 71 351 0.0 4.3 0.00 0.00 0.00 85 1010.7
20260902221410 71 305 0.0 4.3 0.00 0.00 0.00 85 1010.7
20260902220905 71 11 0.0 2.6 0.00 0.00 0.00 85 1010.5
20260902220404 71 285 0.0 4.3 0.00 0.00 0.00 85 1010.6
20260902215904 71 7 0.9 4.3 0.00 0.00 0.00 85 1010.5
20260902215405 71 21 0.0 4.3 0.00 0.00 0.00 85 1010.5
20260902215133 71 31 0.9 4.3 0.00 0.00 0.00 85 1010.6
20260902214402 71 11 0.0 3.5 0.00 0.00 0.00 84 1010.6
20260902213905 71 306 0.9 3.5 0.00 0.00 0.00 84 1010.6
20260902213629 71 15 0.0 3.5 0.00 0.00 0.00 83 1010.6
20260902212903 71 209 0.0 3.5 0.00 0.00 0.00 83 1010.7
20260902212446 71 353 0.0 3.5 0.00 0.00 0.00 82 1010.7
20260902211902 72 345 0.9 2.6 0.00 0.00 0.00 82 1010.7
20260902211402 73 358 0.9 2.6 0.00 0.00 0.00 81 1010.7
20260902210903 72 264 0.9 2.6 0.00 0.00 0.00 81 1010.7
20260902210403 73 34 0.9 2.6 0.00 0.00 0.00 81 1010.6
20260902205905 73 8 0.0 4.3 0.00 0.00 0.00 80 1010.5
20260902205633 73 31 1.7 4.3 0.00 0.00 0.00 81 1010.4
20260902204903 73 259 0.9 3.5 0.00 0.00 0.00 81 1010.5
20260902204650 73 73 0.9 3.5 0.00 0.00 0.00 81 1010.5
20260902204134 74 316 0.9 5.2 0.00 0.00 0.00 78 1010.5
20260902203401 74 24 0.9 5.2 0.00 0.00 0.00 78 1010.5
20260902202859 74 12 2.6 5.2 0.00 0.00 0.00 78 1010.5
20260902202616 75 41 1.7 5.2 0.00 0.00 0.00 75 1010.8
20260902202536 74 329 2.6 5.2 0.00 0.00 0.00 77 1010.6
20260902201415 76 37 0.9 6.1 0.00 0.00 0.00 74 1010.7
20260902200855 76 24 0.0 7.8 0.00 0.00 0.00 72 1010.8
20260902200355 78 330 0.9 7.8 0.00 0.00 0.00 70 1010.9
20260902195854 81 34 2.6 7.8 0.00 0.00 0.00 59 1011.0
20260902195355 82 190 0.0 8.7 0.00 0.00 0.00 58 1011.0
20260902195118 82 300 5.2 8.7 0.00 0.00 0.00 57 1011.1
20260902194351 82 299 1.7 6.1 0.00 0.00 0.00 59 1011.1
20260902193851 82 255 3.5 7.8 0.00 0.00 0.00 60 1011.1
20260902193749 81 306 3.5 7.8 0.00 0.00 0.00 58 1011.1
20260902192849 81 272 3.5 9.6 0.00 0.00 0.00 60 1011.2
20260902192351 81 234 4.3 9.6 0.00 0.00 0.00 60 1011.4
20260902191850 81 269 1.7 9.6 0.00 0.00 0.00 62 1011.5
20260902191353 81 314 2.6 6.1 0.00 0.00 0.00 63 1011.4
20260902190851 80 272 3.5 10.4 0.00 0.00 0.00 66 1011.4
20260902190400 80 265 6.1 10.4 0.00 0.00 0.00 65 1011.6
20260902185852 80 307 4.3 9.6 0.00 0.00 0.00 67 1011.6
20260902185619 79 262 4.3 10.4 0.00 0.00 0.00 66 1011.6
20260902184857 79 281 6.1 10.4 0.00 0.00 0.00 65 1011.6
20260902184352 79 240 3.5 9.6 0.00 0.00 0.00 64 1011.6
20260902184117 79 317 4.3 11.3 0.00 0.00 0.00 65 1011.6
20260902183353 78 282 5.2 8.7 0.00 0.00 0.00 66 1011.6
20260902182851 78 292 1.7 8.7 0.00 0.00 0.00 67 1011.5
20260902182347 78 285 3.5 8.7 0.00 0.00 0.00 65 1011.4
20260902181847 78 261 2.6 9.6 0.00 0.00 0.00 66 1011.4
20260902181348 78 292 1.7 9.6 0.00 0.00 0.00 67 1011.2
20260902180848 78 259 5.2 8.7 0.00 0.00 0.00 66 1011.2